BMCB-11 Weather Reports


Display with metric or nautical units.
time (UTC)temp
F
wind
direction
speed
MPH
gust
MPH
rain 1hr
in
rain 24hr
in
rain mn
in
humidity
%
barometer
mb
20260901214036 55 0 0.0 0.0 0.00 0.00 0.00 90 1023.3
20260901213035 55 0 0.0 0.0 0.00 0.00 0.00 90 1023.3
20260901212037 56 0 0.0 0.0 0.00 0.00 0.00 88 1023.3
20260901210037 57 0 0.0 0.0 0.00 0.00 0.00 86 1023.3
20260901205036 57 0 0.0 0.0 0.00 0.00 0.00 84 1023.3
20260901204035 57 0 0.0 0.0 0.00 0.00 0.00 85 1023.4
20260901202037 58 0 0.0 0.0 0.00 0.00 0.00 84 1023.3
20260901201036 59 0 0.0 0.0 0.00 0.00 0.00 82 1023.1
20260901200037 60 0 0.0 0.0 0.00 0.00 0.00 80 1023.1
20260901195025 60 0 0.0 0.0 0.00 0.00 0.00 79 1023.1
20260901194022 60 0 0.0 0.0 0.00 0.00 0.00 79 1023.0
20260901193022 61 0 0.0 0.0 0.00 0.00 0.00 79 1022.9
20260901192024 61 0 0.0 0.0 0.00 0.00 0.00 78 1022.9
20260901190022 63 0 0.0 0.0 0.00 0.00 0.00 75 1022.6
20260901185022 62 0 0.0 0.0 0.00 0.00 0.00 77 1022.5
20260901183022 63 0 0.0 0.0 0.00 0.00 0.00 74 1022.5
20260901182022 64 0 0.0 0.0 0.00 0.00 0.00 73 1022.5
20260901181020 64 0 0.0 0.0 0.00 0.00 0.00 71 1022.3
20260901180023 64 0 0.0 0.0 0.00 0.00 0.00 72 1022.4
20260901174021 65 0 0.0 0.0 0.00 0.00 0.00 70 1022.4
20260901173022 66 0 0.0 0.0 0.00 0.00 0.00 69 1022.4
20260901172022 67 0 0.0 0.0 0.00 0.00 0.00 67 1022.3
20260901171022 66 0 0.0 0.0 0.00 0.00 0.00 67 1022.3
20260901170021 67 0 0.0 0.0 0.00 0.00 0.00 66 1022.4
20260901165022 67 0 0.0 0.0 0.00 0.00 0.00 64 1022.4
20260901164020 68 0 0.0 0.0 0.00 0.00 0.00 62 1022.2
20260901163019 69 0 0.0 0.0 0.00 0.00 0.00 58 1022.1
20260901162019 70 0 0.0 0.0 0.00 0.00 0.00 58 1022.1
20260901161017 70 0 0.0 0.0 0.00 0.00 0.00 59 1022.1
20260901160017 68 0 0.0 0.0 0.00 0.00 0.00 62 1022.1
20260901155020 68 0 0.0 0.0 0.00 0.00 0.00 62 1022.2
20260901153015 68 0 0.0 0.0 0.00 0.00 0.00 63 1022.2
20260901152019 68 0 0.0 0.0 0.00 0.00 0.00 62 1022.2
20260901150016 68 0 0.0 0.0 0.00 0.00 0.00 62 1022.1
20260901145017 69 0 0.0 0.0 0.00 0.00 0.00 60 1022.2
20260901144015 68 0 0.0 0.0 0.00 0.00 0.00 60 1022.3
20260901143016 69 0 0.0 0.0 0.00 0.00 0.00 59 1022.3
20260901140017 68 0 0.0 0.0 0.00 0.00 0.00 62 1022.4
20260901134017 69 0 0.0 0.0 0.00 0.00 0.00 60 1022.3
20260901133016 69 0 0.0 0.0 0.00 0.00 0.00 60 1022.4
20260901132018 69 0 0.0 0.0 0.00 0.00 0.00 62 1022.4
20260901131016 69 0 0.0 0.0 0.00 0.00 0.00 65 1022.5
20260901130019 70 0 0.0 0.0 0.00 0.00 0.00 62 1022.5
20260901125016 69 0 0.0 0.0 0.00 0.00 0.00 62 1022.6
20260901124016 69 0 0.0 0.0 0.00 0.00 0.00 64 1022.7
20260901123015 69 0 0.0 0.0 0.00 0.00 0.00 63 1022.7
20260901122017 69 0 0.0 0.0 0.00 0.00 0.00 62 1022.7
20260901121016 69 0 0.0 0.0 0.00 0.00 0.00 64 1022.7
20260901120017 68 0 0.0 0.0 0.00 0.00 0.00 65 1022.7
20260901115015 68 0 0.0 0.0 0.00 0.00 0.00 70 1022.6
20260901114016 69 0 0.0 0.0 0.00 0.00 0.00 69 1022.6
20260901113016 68 0 0.0 0.0 0.00 0.00 0.00 66 1022.6
20260901111020 67 0 0.0 0.0 0.00 0.00 0.00 71 1022.8
20260901110016 68 0 0.0 0.0 0.00 0.00 0.00 69 1022.7
20260901105015 68 0 0.0 0.0 0.00 0.00 0.00 69 1022.7
20260901104015 68 0 0.0 0.0 0.00 0.00 0.00 71 1022.8
20260901103017 66 0 0.0 0.0 0.00 0.00 0.00 71 1022.9
20260901102016 66 0 0.0 0.0 0.00 0.00 0.00 71 1022.8
20260901101016 67 0 0.0 0.0 0.00 0.00 0.00 76 1022.7
20260901100022 67 0 0.0 0.0 0.00 0.00 0.00 78 1022.7
20260901095016 66 0 0.0 0.0 0.00 0.00 0.00 81 1022.8
20260901094020 65 0 0.0 0.0 0.00 0.00 0.00 82 1022.8
20260901091016 64 0 0.0 0.0 0.00 0.00 0.00 84 1022.7
20260901090016 64 0 0.0 0.0 0.00 0.00 0.00 85 1022.6
20260901085021 63 0 0.0 0.0 0.00 0.00 0.00 86 1022.5
20260901084016 63 0 0.0 0.0 0.00 0.00 0.00 87 1022.5
20260901083019 62 0 0.0 0.0 0.00 0.00 0.00 88 1022.4
20260901081016 62 0 0.0 0.0 0.00 0.00 0.00 89 1022.2
20260901080016 61 0 0.0 0.0 0.00 0.00 0.00 90 1022.2
20260901074016 60 0 0.0 0.0 0.00 0.00 0.00 91 1022.1
20260901072016 59 0 0.0 0.0 0.00 0.00 0.00 92 1022.0
20260901070016 59 0 0.0 0.0 0.00 0.00 0.00 92 1021.9
20260901065020 59 0 0.0 0.0 0.00 0.00 0.00 92 1021.9
20260901063020 58 0 0.0 0.0 0.00 0.00 0.00 93 1021.9
20260901062016 58 0 0.0 0.0 0.00 0.00 0.00 93 1021.9
20260901060016 58 0 0.0 0.0 0.00 0.00 0.00 94 1021.7
20260901054021 57 0 0.0 0.0 0.00 0.00 0.00 94 1021.5
20260901053016 57 0 0.0 0.0 0.00 0.00 0.00 94 1021.4
20260901051025 57 0 0.0 0.0 0.00 0.00 0.00 95 1021.3
20260901045021 57 0 0.0 0.0 0.00 0.00 0.00 95 1021.3
20260901044019 57 0 0.0 0.0 0.00 0.00 0.00 95 1021.2
20260901043022 57 0 0.0 0.0 0.00 0.00 0.00 95 1021.2
20260901042020 57 0 0.0 0.0 0.00 0.00 0.00 95 1021.0
20260901041024 57 0 0.0 0.0 0.00 0.00 0.00 95 1020.9
20260901040016 57 0 0.0 0.0 0.00 0.00 0.00 94 1020.8
20260901035021 57 0 0.0 0.0 0.00 0.00 0.00 94 1020.8
20260901034023 58 0 0.0 0.0 0.00 0.00 0.00 94 1020.8
20260901033020 58 0 0.0 0.0 0.00 0.00 0.00 94 1020.8
20260901032021 58 0 0.0 0.0 0.00 0.00 0.00 94 1020.7
20260901031024 58 0 0.0 0.0 0.00 0.00 0.00 94 1020.7
20260901030021 58 0 0.0 0.0 0.00 0.00 0.00 94 1020.7
20260901025023 58 0 0.0 0.0 0.00 0.00 0.00 94 1020.7
20260901024025 58 0 0.0 0.0 0.00 0.00 0.00 93 1020.7
20260901022021 58 0 0.0 0.0 0.00 0.00 0.00 93 1020.7
20260901021024 58 0 0.0 0.0 0.00 0.00 0.00 93 1020.7
20260901020017 58 0 0.0 0.0 0.00 0.00 0.00 93 1020.7
20260901015019 58 0 0.0 0.0 0.00 0.00 0.00 93 1020.6
20260901013026 58 0 0.0 0.0 0.00 0.00 0.00 93 1020.5
20260901012027 58 0 0.0 0.0 0.00 0.00 0.00 93 1020.5
20260901011030 58 0 0.0 0.0 0.00 0.00 0.00 93 1020.6
20260901010030 58 0 0.0 0.0 0.00 0.00 0.00 93 1020.7
20260901005032 58 0 0.0 0.0 0.00 0.00 0.00 92 1020.7
20260901004032 58 0 0.0 0.0 0.00 0.00 0.00 92 1020.6
20260901003029 58 0 0.0 0.0 0.00 0.00 0.00 92 1020.6
20260901002031 59 0 0.0 0.0 0.00 0.00 0.00 92 1020.5
20260901001034 59 0 0.0 0.0 0.00 0.00 0.00 91 1020.6
20260901000044 59 0 0.0 0.0 0.00 0.00 0.00 92 1020.6
20260831235038 59 0 0.0 0.0 0.00 0.00 0.00 92 1020.6
20260831234040 59 0 0.0 0.0 0.00 0.00 0.00 92 1020.6
20260831232041 59 0 0.0 0.0 0.00 0.00 0.00 91 1020.5
20260831231037 59 0 0.0 0.0 0.00 0.00 0.00 91 1020.5
20260831230038 59 0 0.0 0.0 0.00 0.00 0.00 91 1020.6
20260831225037 59 0 0.0 0.0 0.00 0.00 0.00 90 1020.6
20260831224038 59 0 0.0 0.0 0.00 0.00 0.00 91 1020.6
20260831223037 59 0 0.0 0.0 0.00 0.00 0.00 90 1020.7
20260831222035 59 0 0.0 0.0 0.00 0.00 0.00 90 1020.7
20260831221037 59 0 0.0 0.0 0.00 0.00 0.00 90 1020.5
20260831220037 59 0 0.0 0.0 0.00 0.00 0.00 90 1020.5